Lapse_Rate
6.4 6.4 6.5 6.5 6.6 7.0 6.9 7.0 6.8 6.7 6.9 7.2 7.4 7.3 7.5 7.1 6.9 6.8 6.8 6.8 6.7 6.7 6.5 6.2 6.3 6.3 6.3 6.3 6.3 6.3 6.5 6.5 6.6 6.8 6.8 6.8 6.9 6.8 6.7 6.7 6.5 6.5 6.5
6.4 6.4 6.4 6.4 6.4 6.7 6.4 6.4 6.5 6.6 6.6 6.9 7.1 7.2 7.4 7.3 6.9 6.8 6.7 6.9 6.7 6.8 6.6 6.4 6.4 6.4 6.3 6.3 6.1 6.3 6.4 6.5 6.6 6.6 6.9 6.9 6.8 6.8 6.7 6.7 6.6 6.6 6.5
6.5 6.4 6.4 6.2 6.3 6.3 6.1 5.9 5.8 5.9 6.1 6.3 6.8 6.7 7.1 7.3 6.9 6.7 6.7 6.8 6.7 6.6 6.7 6.4 6.4 6.3 6.2 6.3 6.2 6.2 6.3 6.4 6.6 6.7 6.8 6.8 6.8 6.6 6.4 6.7 6.6 6.4 6.5
6.2 5.9 6.5 6.4 6.6 5.8 5.1 5.3 5.1 5.7 5.9 5.8 6.0 6.5 6.5 6.6 6.8 6.7 6.8 6.8 6.6 6.5 6.6 6.5 6.2 6.2 6.1 6.1 6.2 6.2 6.3 6.4 6.4 6.5 6.7 6.7 6.6 6.4 6.4 6.5 6.5 6.5 6.5
6.4 6.3 6.2 6.4 5.9 5.8 5.6 5.7 6.0 6.2 6.0 5.8 4.8 5.3 6.1 6.1 6.6 6.7 6.8 6.8 6.6 6.5 6.4 6.4 6.3 6.2 6.1 6.0 6.1 6.2 6.3 6.4 6.3 6.5 6.5 6.4 6.3 6.2 6.2 6.3 6.3 6.5 6.5
6.4 6.3 6.3 6.3 6.2 6.0 6.2 5.9 5.8 5.4 5.1 5.2 5.5 5.5 4.5 5.3 6.0 6.5 6.6 6.6 6.6 6.4 6.3 6.4 6.5 6.3 6.1 6.1 6.1 6.1 6.2 6.3 6.3 6.4 6.3 6.2 6.1 6.2 6.2 6.3 6.3 6.4 6.3
6.3 6.6 6.4 6.2 6.3 6.3 6.3 6.2 5.9 5.8 5.4 6.0 5.7 5.0 4.7 4.8 5.2 5.7 6.5 6.5 6.4 6.3 6.1 6.2 6.4 6.4 6.2 6.0 6.1 6.0 6.1 6.0 6.3 6.1 6.0 6.0 6.0 6.0 6.1 6.2 6.1 6.2 6.1
6.5 6.4 6.2 6.2 6.6 6.5 6.5 6.2 6.2 6.4 5.8 5.6 5.8 5.3 5.2 4.6 4.8 5.3 5.7 6.3 6.3 6.2 6.0 5.9 6.0 6.1 6.1 6.0 6.0 5.8 5.9 5.9 6.2 6.1 5.9 6.0 6.2 6.1 6.0 5.9 5.8 5.9 5.9
6.8 6.6 6.5 6.1 6.6 6.4 6.3 6.3 6.4 6.4 6.2 6.0 5.7 5.5 5.0 4.6 4.8 4.7 4.9 5.9 6.1 5.9 5.9 5.6 5.6 5.9 5.9 5.9 5.9 5.8 5.9 5.9 6.2 6.0 6.0 6.0 5.9 5.8 5.9 6.0 6.1 6.1 6.0
6.4 6.3 6.5 6.8 6.6 7.0 6.8 6.9 6.4 6.1 5.6 5.7 5.5 5.2 4.9 4.8 4.8 4.9 5.1 5.7 5.9 5.7 5.8 5.6 5.8 5.8 5.9 5.9 5.9 5.8 5.9 5.9 6.2 6.0 5.9 5.7 5.8 5.9 5.9 5.9 5.8 5.8 5.8
6.5 6.5 6.5 6.7 6.6 6.5 6.6 6.5 6.5 6.1 6.6 5.9 4.9 5.3 4.8 4.5 4.5 4.8 5.2 5.5 5.3 5.7 5.8 5.7 5.6 5.9 5.9 5.8 5.8 5.9 6.0 5.9 6.2 6.1 6.0 5.8 5.7 5.9 5.7 5.5 5.5 5.8 5.6
6.1 6.7 6.9 6.6 6.5 6.3 6.3 6.7 6.8 6.3 6.0 6.1 5.5 5.4 5.1 5.0 4.8 4.7 4.8 5.2 5.3 5.6 6.0 5.7 5.9 5.9 5.9 5.8 5.8 6.0 6.1 6.0 6.3 6.0 6.1 5.9 5.8 5.9 5.6 5.5 5.5 5.3 5.1
4.9 5.6 5.6 5.9 6.4 6.0 6.0 6.4 6.3 6.3 6.0 5.9 6.0 6.1 5.6 5.0 5.1 4.8 4.7 5.0 5.4 5.8 6.0 5.9 5.8 5.8 5.9 5.9 5.8 6.1 6.0 6.0 6.3 6.2 5.9 5.7 5.8 5.7 5.6 5.5 5.6 5.3 5.1
6.2 5.3 5.6 5.6 5.7 5.8 5.9 6.1 6.3 6.1 6.3 6.1 6.2 5.9 5.8 5.5 5.3 5.0 5.1 5.0 5.0 5.5 6.1 6.2 5.9 5.9 5.8 5.6 5.9 6.1 5.7 5.7 5.9 5.9 5.9 5.7 5.5 5.4 5.5 5.5 5.6 5.7 5.5
6.5 6.8 6.3 6.0 5.4 6.1 5.8 5.2 5.5 5.7 5.8 6.3 5.7 5.8 5.4 5.7 5.3 4.9 4.8 4.9 5.3 5.5 6.0 6.3 6.2 6.0 6.0 5.8 5.9 6.0 5.8 5.8 5.6 5.7 5.8 5.5 5.1 5.1 5.2 5.4 5.3 5.3 5.4
5.8 6.1 5.4 5.3 5.5 5.5 5.9 6.1 5.8 5.4 5.5 6.0 5.8 5.4 5.8 5.6 5.0 5.1 5.1 5.2 5.2 4.9 5.2 5.8 6.3 6.2 6.0 5.9 5.9 5.8 5.8 5.8 5.5 5.4 5.3 5.0 5.0 5.1 5.2 5.3 5.3 5.2 5.4
5.8 5.4 5.6 5.9 5.8 5.3 5.4 5.7 6.5 5.4 5.3 5.5 5.7 5.4 5.9 5.6 5.5 5.2 5.4 5.4 5.2 5.3 5.4 5.2 5.8 6.1 5.8 5.8 5.7 5.6 5.5 5.8 5.5 5.2 5.1 5.0 5.0 4.9 5.1 5.2 5.1 5.2 5.3
7.0 6.6 6.1 5.7 5.9 5.6 5.8 5.5 5.5 5.7 6.0 5.9 5.7 5.2 5.7 5.8 5.9 5.5 5.5 5.5 5.3 5.4 5.3 5.4 5.3 4.8 5.0 5.3 5.2 5.3 5.3 5.6 5.2 5.0 5.1 5.0 4.9 4.7 5.0 4.9 5.2 5.1 5.0
7.7 7.6 7.5 7.1 6.4 6.1 6.3 6.2 5.9 5.8 5.6 5.9 6.4 6.1 5.5 5.6 5.1 5.6 5.6 5.1 5.4 5.6 5.6 5.1 5.2 4.9 4.6 4.9 4.9 5.1 5.3 4.9 4.9 5.0 5.0 5.0 4.8 4.8 4.8 5.0 5.1 5.0 4.6
8.1 7.9 7.8 7.9 7.9 7.9 7.5 7.3 6.8 6.3 5.9 5.8 5.8 6.1 5.8 5.9 5.5 5.8 5.7 5.7 5.8 5.6 5.7 5.5 5.2 5.3 4.8 4.7 4.7 5.0 5.1 5.0 5.0 5.1 4.9 4.8 4.8 4.7 4.7 4.8 4.9 5.0 5.0
8.0 8.1 8.2 8.0 8.0 8.0 7.9 7.7 7.4 6.9 7.0 6.6 6.4 6.3 6.0 6.0 5.9 5.5 5.6 5.9 6.2 6.2 5.7 5.6 5.5 6.0 5.4 5.2 4.8 4.9 4.6 4.4 4.3 4.5 4.3 3.9 4.6 4.7 4.8 4.8 4.8 4.7 5.0
7.8 7.8 7.8 7.9 8.1 8.3 8.0 7.7 7.5 7.4 7.1 7.0 6.8 6.6 6.2 5.8 6.0 6.1 5.5 6.0 6.2 5.9 5.9 6.0 5.8 6.1 6.6 6.0 5.2 4.8 4.7 4.7 4.1 4.5 4.0 3.9 4.0 4.7 4.8 4.9 4.9 5.0 5.0
7.9 7.9 8.0 8.0 8.1 7.5 7.5 7.1 6.6 6.5 6.8 6.3 6.8 6.8 6.6 6.1 5.5 6.2 6.1 6.4 6.3 6.2 6.6 6.3 6.3 6.3 6.1 6.5 6.1 5.4 5.0 4.7 4.9 4.6 4.3 4.0 4.3 4.6 4.8 5.1 5.2 5.0 5.1
7.6 7.7 7.7 7.8 7.7 7.2 6.8 6.5 6.3 6.3 6.4 6.6 6.5 6.7 6.8 6.7 6.5 5.6 6.0 6.0 6.3 6.3 6.4 6.2 6.1 6.4 6.3 6.2 6.0 5.5 4.8 4.9 4.8 4.3 4.1 3.8 4.4 4.7 5.1 5.1 5.1 5.1 5.3
7.4 7.4 7.5 7.4 7.1 6.9 6.5 6.0 6.2 6.2 6.2 6.5 6.7 6.9 6.8 7.1 6.9 6.9 6.4 6.4 6.5 6.7 6.1 6.3 6.4 6.4 6.1 5.7 5.4 5.3 5.1 5.0 4.8 4.3 4.2 4.2 4.4 5.1 5.2 5.2 5.1 5.2 5.5
7.1 7.2 7.2 7.1 6.7 6.6 6.3 6.1 5.9 6.0 5.8 6.2 7.0 7.1 6.8 6.6 6.6 6.8 6.7 6.6 6.1 6.0 5.7 5.9 5.7 5.4 5.5 5.1 5.0 5.0 5.1 4.9 4.5 4.2 4.5 4.7 5.0 5.3 5.3 5.4 5.4 5.5 5.5
Wind_Speed
10 12 11 12 15 16 15 12 14 14 14 19 20 21 21 20 21 17 20 22 23 23 21 21 20 20 20 19 20 19 20 20 21 21 21 22 22 22 22 20 21 22 22
9 8 7 7 9 13 13 11 10 8 9 15 14 21 21 22 21 21 22 23 24 25 24 22 21 18 19 20 19 19 20 20 21 20 21 22 21 22 21 22 22 21 21
13 11 9 8 8 14 11 12 11 9 6 9 13 16 18 21 21 22 23 23 24 25 25 22 22 21 19 20 21 18 19 19 21 21 21 20 21 22 21 21 23 22 24
20 11 9 7 13 14 10 5 3 5 4 4 8 9 11 18 21 22 20 23 22 22 25 23 21 20 19 19 20 20 19 20 19 21 21 20 21 22 21 22 22 23 23
20 11 9 7 11 7 9 6 6 1 4 5 2 2 6 11 15 19 20 21 24 23 22 25 22 21 19 20 19 21 21 21 20 21 22 21 22 23 20 22 24 24 24
18 11 8 9 12 10 11 10 11 8 4 5 8 5 2 5 11 11 16 19 20 22 23 25 24 21 21 21 20 21 21 22 21 21 21 20 20 21 20 23 24 24 25
12 9 7 9 11 12 15 15 12 15 9 12 7 5 5 5 6 4 13 15 17 19 21 23 21 22 20 21 21 21 22 20 21 19 19 21 21 20 19 18 20 21 23
11 10 9 10 11 9 13 14 16 11 6 12 8 7 4 1 3 3 5 8 10 16 18 20 22 21 22 20 19 21 21 20 21 19 18 19 21 19 19 19 20 21 20
9 11 12 11 12 12 12 17 17 17 9 11 15 6 5 4 3 1 1 6 9 6 13 18 19 21 22 22 21 19 17 19 20 20 18 18 19 18 20 20 19 19 19
6 7 10 12 13 10 12 14 14 14 11 14 8 3 3 6 5 3 1 2 4 8 10 13 19 20 22 22 22 22 22 20 19 21 19 19 19 18 19 18 21 21 21
6 7 8 12 12 11 13 16 16 16 12 13 10 4 2 3 4 3 4 3 2 1 5 11 17 19 19 22 24 26 26 22 20 21 20 20 19 18 18 18 19 21 19
6 5 7 9 11 11 11 12 16 18 15 16 13 11 9 9 8 6 5 6 9 2 1 7 11 14 17 21 23 29 27 22 21 22 21 21 20 18 19 19 20 18 19
5 6 8 8 8 10 13 15 17 19 18 16 19 13 11 10 12 8 7 9 6 2 3 2 7 10 12 18 24 29 28 24 22 21 22 22 20 19 18 19 21 20 18
6 8 8 10 12 11 10 11 10 12 17 16 21 16 12 10 11 9 8 11 4 2 1 4 5 9 11 17 23 29 28 26 23 17 20 23 19 19 17 18 19 20 18
9 8 12 12 15 14 14 12 10 13 12 15 14 13 13 10 10 10 12 15 11 6 6 6 4 12 14 18 23 26 27 29 25 19 17 22 20 19 19 18 17 19 19
8 9 11 14 14 15 14 14 9 12 13 12 12 17 16 11 12 12 14 14 11 7 6 3 3 13 19 20 23 26 26 29 26 21 20 21 20 19 19 19 18 17 18
6 6 10 13 11 14 13 15 15 14 14 13 13 15 17 15 12 11 13 13 11 9 9 4 3 14 14 15 21 24 26 25 23 21 20 20 21 19 19 17 17 17 18
8 8 8 8 13 12 12 15 15 16 19 20 18 15 15 12 15 16 14 17 14 12 11 15 13 11 13 19 20 19 20 24 23 19 20 22 21 20 20 18 19 17 16
9 8 9 11 8 9 12 12 17 17 19 19 19 19 19 19 18 15 15 14 13 11 13 11 10 12 12 13 13 17 20 23 20 23 21 22 21 20 20 19 19 18 17
9 8 7 7 9 8 9 11 13 16 16 16 17 20 20 20 20 19 17 18 15 14 15 14 14 14 14 14 11 12 11 12 12 22 21 22 22 20 19 18 18 18 19
9 9 10 10 9 10 8 9 13 13 15 15 14 17 18 23 27 24 14 16 17 13 14 16 14 15 14 15 15 11 11 10 10 18 17 19 21 20 19 17 16 17 17
11 12 12 12 12 9 12 13 13 13 16 17 15 16 15 22 25 31 30 31 28 22 18 16 13 17 20 19 16 15 14 14 11 17 11 9 16 14 15 15 17 18 17
8 10 10 10 12 12 15 17 16 11 12 13 14 15 14 14 20 19 23 31 33 36 37 27 24 23 23 23 22 20 19 16 10 13 14 11 18 9 15 17 20 19 19
8 8 9 10 10 10 15 18 17 13 11 11 13 16 16 15 20 20 18 20 20 22 23 18 27 26 23 22 22 22 22 16 12 15 20 10 11 10 16 17 19 19 19
8 9 8 11 10 11 15 14 13 12 12 10 11 15 16 16 24 26 20 21 17 15 17 20 27 33 38 39 35 17 15 15 13 12 12 11 8 9 10 15 19 19 19
7 7 10 10 11 11 13 15 12 7 8 7 7 9 18 16 25 30 21 20 17 14 15 15 15 19 33 34 42 28 19 17 15 9 10 8 11 10 5 12 15 20 18
Wind_Direction
188 184 188 180 183 181 178 180 174 174 163 167 170 166 165 160 156 153 152 152 146 142 138 135 132 130 126 124 119 118 115 111 107 106 104 101 95 92 89 86 83 81 77
193 192 185 190 180 178 177 176 179 182 169 169 170 169 168 158 158 155 153 158 149 142 140 138 134 133 131 128 121 123 118 118 112 107 105 100 99 95 92 85 88 85 85
189 192 198 192 177 159 170 173 173 191 168 168 171 167 166 158 158 157 155 156 153 145 138 138 136 135 136 131 125 124 119 117 115 112 106 103 99 95 94 85 90 87 84
187 193 197 195 165 142 137 161 182 160 156 147 159 162 166 158 159 158 157 156 152 143 134 134 135 136 135 133 131 125 122 119 114 113 109 104 103 99 97 88 92 89 86
189 188 189 180 169 157 151 151 124 273 108 110 43 138 174 149 160 159 156 158 155 150 144 136 136 136 138 137 138 131 127 125 119 115 113 109 104 99 97 91 93 93 90
188 183 189 174 155 156 161 152 148 136 127 131 113 84 344 131 160 159 155 154 154 155 152 146 143 146 145 141 140 137 133 125 121 116 114 111 110 106 100 94 93 90 88
197 181 175 160 163 169 174 170 162 150 145 131 99 61 29 359 96 149 157 148 146 151 153 154 151 150 147 149 145 142 134 131 124 123 120 115 110 109 111 103 97 90 89
183 190 171 170 166 162 180 179 168 162 158 178 165 132 166 278 29 68 160 147 140 143 149 154 152 150 147 145 145 142 137 135 126 123 120 117 113 112 110 112 106 98 94
199 201 183 174 177 175 179 180 182 178 179 189 178 149 143 193 146 351 65 137 144 140 141 146 149 147 144 142 133 124 134 131 130 127 124 119 111 117 115 110 104 102 100
219 210 190 176 182 183 182 183 186 185 175 180 176 110 103 128 149 176 353 102 124 145 142 144 146 146 148 146 140 136 127 125 136 132 130 125 122 119 118 116 112 108 104
234 223 208 207 195 195 187 182 185 189 184 172 189 156 128 134 119 165 152 155 91 135 141 142 147 148 152 151 144 137 135 143 143 137 135 128 123 122 121 116 110 105 103
251 244 217 213 205 184 184 187 189 186 176 188 186 184 178 181 177 168 153 180 153 157 171 134 135 143 151 153 153 142 142 142 135 140 135 130 126 125 127 123 115 115 114
216 233 203 214 204 196 184 183 186 191 189 189 188 182 179 180 180 163 151 172 167 122 162 129 130 144 146 147 153 148 143 138 131 139 137 130 128 127 123 122 122 114 109
223 221 191 215 219 193 189 191 195 198 192 196 195 190 183 169 177 161 160 156 137 160 159 141 152 164 155 146 150 148 145 135 133 140 139 134 136 132 124 122 122 118 114
251 206 216 215 229 190 178 208 193 199 200 197 190 182 183 173 163 157 155 159 166 161 187 186 152 179 163 148 146 158 150 137 140 136 127 132 133 130 127 126 123 125 120
273 248 233 228 222 221 180 181 202 208 204 198 190 190 188 173 172 164 158 167 167 153 156 147 187 167 163 153 155 150 141 134 139 142 131 132 131 130 129 125 124 121 119
315 326 283 246 228 229 207 193 191 186 196 204 200 201 192 174 173 168 167 169 152 153 139 129 135 162 161 149 151 140 139 137 137 141 142 135 130 133 132 127 122 120 119
330 321 302 306 269 225 216 212 205 199 198 193 198 193 187 176 179 171 170 172 167 151 146 145 159 157 158 152 148 138 139 140 139 142 136 131 129 133 126 126 123 120 118
326 315 310 301 293 283 233 224 219 209 202 204 194 196 190 180 180 177 178 173 167 150 148 146 146 159 151 148 144 137 136 134 136 143 143 138 139 140 136 133 127 126 123
324 318 307 290 287 279 273 232 226 222 213 203 200 193 192 188 183 179 175 172 166 152 148 144 156 157 149 152 147 144 138 139 144 150 149 147 146 143 141 137 136 132 130
324 311 300 295 282 278 269 259 232 225 215 201 196 194 194 191 185 180 175 171 161 151 152 149 165 161 160 159 162 153 147 146 143 151 153 147 149 150 147 144 141 138 133
323 320 317 309 297 284 277 264 258 231 215 205 193 189 193 193 189 181 179 171 167 160 162 156 165 174 170 160 160 160 155 155 148 170 149 139 149 146 147 150 148 146 140
307 308 303 297 291 287 271 262 251 255 230 208 192 188 191 192 190 189 183 176 175 173 168 164 168 179 173 170 158 160 162 161 158 150 149 143 157 148 153 153 151 147 143
311 309 302 298 293 291 277 265 249 253 252 208 198 189 187 186 189 186 177 180 184 180 178 174 173 174 172 164 164 161 157 148 134 147 153 148 162 154 159 158 155 151 149
318 318 307 309 297 289 286 280 257 249 240 228 207 191 191 188 184 179 175 176 179 184 187 179 167 159 165 161 154 146 150 147 146 159 178 142 160 146 162 166 163 164 159
304 312 313 306 297 299 300 293 274 256 226 200 190 200 191 190 175 171 172 171 170 168 156 151 149 151 156 161 159 162 154 151 152 152 179 148 156 149 159 181 174 173 170